owner,sensor,date,latitude,longitude,vertical_datum,sea_water_practical_salinity,qcFlag 
DISL,ioos:station:DISL:DISL:1,2019-10-01T01:00:00Z,30.2513,-88.0778,2.161,25.9,11111222 
DISL,ioos:station:DISL:DISL:1,2019-10-01T02:00:00Z,30.2513,-88.0778,2.168,26.5,11111222 
DISL,ioos:station:DISL:DISL:1,2019-10-01T03:00:00Z,30.2513,-88.0778,2.213,25.8,11111222 
DISL,ioos:station:DISL:DISL:1,2019-10-01T04:00:00Z,30.2513,-88.0778,2.23,24.03,11111222 
DISL,ioos:station:DISL:DISL:1,2019-10-01T05:00:00Z,30.2513,-88.0778,2.232,23.96,11111222 
DISL,ioos:station:DISL:DISL:1,2019-10-01T06:00:00Z,30.2513,-88.0778,2.229,23.91,11111222 
DISL,ioos:station:DISL:DISL:1,2019-10-01T07:00:00Z,30.2513,-88.0778,2.204,23.83,11111222 
DISL,ioos:station:DISL:DISL:1,2019-10-01T08:00:00Z,30.2513,-88.0778,2.171,23.88,11111222 
DISL,ioos:station:DISL:DISL:1,2019-10-01T09:00:00Z,30.2513,-88.0778,2.126,23.73,11111222 
DISL,ioos:station:DISL:DISL:1,2019-10-01T10:00:00Z,30.2513,-88.0778,2.064,23.61,11111222 
DISL,ioos:station:DISL:DISL:1,2019-10-01T11:00:00Z,30.2513,-88.0778,2.029,23.74,11111222 
DISL,ioos:station:DISL:DISL:1,2019-10-01T12:00:00Z,30.2513,-88.0778,2.011,21.48,11111222 
DISL,ioos:station:DISL:DISL:1,2019-10-01T13:00:00Z,30.2513,-88.0778,1.959,23.48,11111222 
DISL,ioos:station:DISL:DISL:1,2019-10-01T14:00:00Z,30.2513,-88.0778,1.946,23.48,11111222 
DISL,ioos:station:DISL:DISL:1,2019-10-01T15:00:00Z,30.2513,-88.0778,1.888,23.48,11111222 
DISL,ioos:station:DISL:DISL:1,2019-10-01T16:00:00Z,30.2513,-88.0778,1.924,23.58,11111222 
DISL,ioos:station:DISL:DISL:1,2019-10-01T17:00:00Z,30.2513,-88.0778,1.928,23.42,11111222 
DISL,ioos:station:DISL:DISL:1,2019-10-01T18:00:00Z,30.2513,-88.0778,1.938,23.81,11111222 
DISL,ioos:station:DISL:DISL:1,2019-10-01T19:00:00Z,30.2513,-88.0778,1.961,24.39,11111222 
DISL,ioos:station:DISL:DISL:1,2019-10-01T20:00:00Z,30.2513,-88.0778,1.993,23.57,11111222 
DISL,ioos:station:DISL:DISL:1,2019-10-01T21:00:00Z,30.2513,-88.0778,2.028,23.6,11111222 
DISL,ioos:station:DISL:DISL:1,2019-10-01T22:00:00Z,30.2513,-88.0778,2.064,23.65,11111222 
DISL,ioos:station:DISL:DISL:1,2019-10-01T23:00:00Z,30.2513,-88.0778,2.11,23.67,11111222 
DISL,ioos:station:DISL:DISL:1,2019-10-02T00:00:00Z,30.2513,-88.0778,2.156,23.67,11111222 
DISL,ioos:station:DISL:DISL:1,2019-10-02T01:00:00Z,30.2513,-88.0778,2.194,25.25,11111222 
DISL,ioos:station:DISL:DISL:1,2019-10-02T02:00:00Z,30.2513,-88.0778,2.244,25.88,11111222 
DISL,ioos:station:DISL:DISL:1,2019-10-02T03:00:00Z,30.2513,-88.0778,2.296,25.89,11111222 
DISL,ioos:station:DISL:DISL:1,2019-10-02T04:00:00Z,30.2513,-88.0778,2.33,23.74,11111222 
DISL,ioos:station:DISL:DISL:1,2019-10-02T05:00:00Z,30.2513,-88.0778,2.35,23.66,11111222 
DISL,ioos:station:DISL:DISL:1,2019-10-02T06:00:00Z,30.2513,-88.0778,2.338,23.56,11111222 
DISL,ioos:station:DISL:DISL:1,2019-10-02T07:00:00Z,30.2513,-88.0778,2.309,23.48,11111222 
DISL,ioos:station:DISL:DISL:1,2019-10-02T08:00:00Z,30.2513,-88.0778,2.282,23.42,11111222 
DISL,ioos:station:DISL:DISL:1,2019-10-02T09:00:00Z,30.2513,-88.0778,2.218,23.41,11111222 
DISL,ioos:station:DISL:DISL:1,2019-10-02T10:00:00Z,30.2513,-88.0778,2.166,23.41,11111222 
DISL,ioos:station:DISL:DISL:1,2019-10-02T11:00:00Z,30.2513,-88.0778,2.102,23.56,11111222 
DISL,ioos:station:DISL:DISL:1,2019-10-02T12:00:00Z,30.2513,-88.0778,2.05,23.42,11111222 
DISL,ioos:station:DISL:DISL:1,2019-10-02T13:00:00Z,30.2513,-88.0778,2.031,23.24,11111222 
DISL,ioos:station:DISL:DISL:1,2019-10-02T14:00:00Z,30.2513,-88.0778,1.968,23.4,11111222 
DISL,ioos:station:DISL:DISL:1,2019-10-02T15:00:00Z,30.2513,-88.0778,1.945,20.11,11111222 
DISL,ioos:station:DISL:DISL:1,2019-10-02T16:00:00Z,30.2513,-88.0778,1.904,19.94,11111222 
DISL,ioos:station:DISL:DISL:1,2019-10-02T17:00:00Z,30.2513,-88.0778,1.899,22.98,11111222 
DISL,ioos:station:DISL:DISL:1,2019-10-02T18:00:00Z,30.2513,-88.0778,1.895,22.84,11111222 
DISL,ioos:station:DISL:DISL:1,2019-10-02T19:00:00Z,30.2513,-88.0778,1.902,23.17,11111222 
DISL,ioos:station:DISL:DISL:1,2019-10-02T20:00:00Z,30.2513,-88.0778,1.931,17.41,11111222 
DISL,ioos:station:DISL:DISL:1,2019-10-02T21:00:00Z,30.2513,-88.0778,1.951,23.35,11111222 
DISL,ioos:station:DISL:DISL:1,2019-10-02T22:00:00Z,30.2513,-88.0778,1.993,12.25,11111222 
DISL,ioos:station:DISL:DISL:1,2019-10-02T23:00:00Z,30.2513,-88.0778,2.059,23.05,11111222 
DISL,ioos:station:DISL:DISL:1,2019-10-02T23:30:00Z,30.2513,-88.0778,2.089,23.03,11111222 
DISL,ioos:station:DISL:DISL:1,2019-10-03T01:00:00Z,30.2513,-88.0778,2.169,23.25,11111222 
DISL,ioos:station:DISL:DISL:1,2019-10-03T02:00:00Z,30.2513,-88.0778,2.229,23.37,11111222 
DISL,ioos:station:DISL:DISL:1,2019-10-03T03:00:00Z,30.2513,-88.0778,2.287,23.44,11111222 
DISL,ioos:station:DISL:DISL:1,2019-10-03T04:00:00Z,30.2513,-88.0778,2.344,23.45,11111222 
DISL,ioos:station:DISL:DISL:1,2019-10-03T05:00:00Z,30.2513,-88.0778,2.376,23.46,11111222 
DISL,ioos:station:DISL:DISL:1,2019-10-03T06:00:00Z,30.2513,-88.0778,2.388,23.44,11111222 
DISL,ioos:station:DISL:DISL:1,2019-10-03T07:00:00Z,30.2513,-88.0778,2.373,23.4,11111222 
DISL,ioos:station:DISL:DISL:1,2019-10-03T08:00:00Z,30.2513,-88.0778,2.357,23.38,11111222 
DISL,ioos:station:DISL:DISL:1,2019-10-03T09:00:00Z,30.2513,-88.0778,2.317,23.37,11111222 
DISL,ioos:station:DISL:DISL:1,2019-10-03T10:00:00Z,30.2513,-88.0778,2.254,23.36,11111222 
DISL,ioos:station:DISL:DISL:1,2019-10-03T11:00:00Z,30.2513,-88.0778,2.204,23.34,11111222 
DISL,ioos:station:DISL:DISL:1,2019-10-03T12:00:00Z,30.2513,-88.0778,2.144,23.29,11111222 
DISL,ioos:station:DISL:DISL:1,2019-10-03T13:00:00Z,30.2513,-88.0778,2.101,23.11,11111222 
DISL,ioos:station:DISL:DISL:1,2019-10-03T14:00:00Z,30.2513,-88.0778,2.063,23.0,11111222 
DISL,ioos:station:DISL:DISL:1,2019-10-03T15:00:00Z,30.2513,-88.0778,2.025,23.26,11111222 
DISL,ioos:station:DISL:DISL:1,2019-10-03T16:00:00Z,30.2513,-88.0778,1.978,23.09,11111222 
DISL,ioos:station:DISL:DISL:1,2019-10-03T17:00:00Z,30.2513,-88.0778,1.955,22.77,11111222 
DISL,ioos:station:DISL:DISL:1,2019-10-03T18:00:00Z,30.2513,-88.0778,1.925,22.65,11111222 
DISL,ioos:station:DISL:DISL:1,2019-10-03T19:00:00Z,30.2513,-88.0778,1.926,22.62,11111222 
DISL,ioos:station:DISL:DISL:1,2019-10-03T20:00:00Z,30.2513,-88.0778,1.938,22.62,11111222 
DISL,ioos:station:DISL:DISL:1,2019-10-03T21:00:00Z,30.2513,-88.0778,1.956,23.01,11111222 
DISL,ioos:station:DISL:DISL:1,2019-10-03T22:00:00Z,30.2513,-88.0778,1.996,22.87,11111222 
DISL,ioos:station:DISL:DISL:1,2019-10-03T23:00:00Z,30.2513,-88.0778,2.032,22.71,11111222 
DISL,ioos:station:DISL:DISL:1,2019-10-03T23:30:00Z,30.2513,-88.0778,2.056,20.91,11111222 
DISL,ioos:station:DISL:DISL:1,2019-10-04T00:30:00Z,30.2513,-88.0778,2.118,22.86,11111222 
DISL,ioos:station:DISL:DISL:1,2019-10-04T02:00:00Z,30.2513,-88.0778,2.201,23.2,11111222 
DISL,ioos:station:DISL:DISL:1,2019-10-04T03:00:00Z,30.2513,-88.0778,2.252,23.24,11111222 
DISL,ioos:station:DISL:DISL:1,2019-10-04T03:30:00Z,30.2513,-88.0778,2.28,23.26,11111222 
DISL,ioos:station:DISL:DISL:1,2019-10-04T05:00:00Z,30.2513,-88.0778,2.352,23.28,11111222 
DISL,ioos:station:DISL:DISL:1,2019-10-04T06:00:00Z,30.2513,-88.0778,2.379,23.29,11111222 
DISL,ioos:station:DISL:DISL:1,2019-10-04T07:00:00Z,30.2513,-88.0778,2.392,19.55,11111222 
DISL,ioos:station:DISL:DISL:1,2019-10-04T08:00:00Z,30.2513,-88.0778,2.373,23.34,11111222 
DISL,ioos:station:DISL:DISL:1,2019-10-04T09:00:00Z,30.2513,-88.0778,2.339,23.34,11111222 
DISL,ioos:station:DISL:DISL:1,2019-10-04T10:00:00Z,30.2513,-88.0778,2.288,23.35,11111222 
DISL,ioos:station:DISL:DISL:1,2019-10-04T11:00:00Z,30.2513,-88.0778,2.267,23.35,11111222 
DISL,ioos:station:DISL:DISL:1,2019-10-04T12:00:00Z,30.2513,-88.0778,2.209,23.22,11111222 
DISL,ioos:station:DISL:DISL:1,2019-10-04T13:00:00Z,30.2513,-88.0778,2.16,22.98,11111222 
DISL,ioos:station:DISL:DISL:1,2019-10-04T14:00:00Z,30.2513,-88.0778,2.106,19.31,11111222 
DISL,ioos:station:DISL:DISL:1,2019-10-04T15:00:00Z,30.2513,-88.0778,2.055,22.79,11111222 
DISL,ioos:station:DISL:DISL:1,2019-10-04T16:00:00Z,30.2513,-88.0778,2.02,22.75,11111222 
DISL,ioos:station:DISL:DISL:1,2019-10-04T17:00:00Z,30.2513,-88.0778,1.977,22.67,11111222 
DISL,ioos:station:DISL:DISL:1,2019-10-04T18:00:00Z,30.2513,-88.0778,1.942,22.21,11111222 
DISL,ioos:station:DISL:DISL:1,2019-10-04T19:00:00Z,30.2513,-88.0778,1.932,22.05,11111222 
DISL,ioos:station:DISL:DISL:1,2019-10-04T20:00:00Z,30.2513,-88.0778,1.911,22.05,11111222 
DISL,ioos:station:DISL:DISL:1,2019-10-04T21:00:00Z,30.2513,-88.0778,1.906,22.28,11111222 
DISL,ioos:station:DISL:DISL:1,2019-10-04T22:00:00Z,30.2513,-88.0778,1.934,22.32,11111222 
DISL,ioos:station:DISL:DISL:1,2019-10-04T23:00:00Z,30.2513,-88.0778,1.974,22.16,11111222 
DISL,ioos:station:DISL:DISL:1,2019-10-05T00:00:00Z,30.2513,-88.0778,2.014,22.09,11111222 
DISL,ioos:station:DISL:DISL:1,2019-10-05T01:00:00Z,30.2513,-88.0778,2.088,22.39,11111222 
DISL,ioos:station:DISL:DISL:1,2019-10-05T02:00:00Z,30.2513,-88.0778,2.171,22.65,11111222 
DISL,ioos:station:DISL:DISL:1,2019-10-05T03:00:00Z,30.2513,-88.0778,2.213,20.23,11111222 
DISL,ioos:station:DISL:DISL:1,2019-10-05T04:00:00Z,30.2513,-88.0778,2.245,23.06,11111222 
DISL,ioos:station:DISL:DISL:1,2019-10-05T05:00:00Z,30.2513,-88.0778,2.313,23.07,11111222 
DISL,ioos:station:DISL:DISL:1,2019-10-05T06:00:00Z,30.2513,-88.0778,2.307,23.18,11111222 
DISL,ioos:station:DISL:DISL:1,2019-10-05T07:00:00Z,30.2513,-88.0778,2.343,24.83,11111222 
DISL,ioos:station:DISL:DISL:1,2019-10-05T08:00:00Z,30.2513,-88.0778,2.351,23.99,11111222 
DISL,ioos:station:DISL:DISL:1,2019-10-05T09:00:00Z,30.2513,-88.0778,2.348,23.29,11111222 
DISL,ioos:station:DISL:DISL:1,2019-10-05T10:00:00Z,30.2513,-88.0778,2.319,23.3,11111222 
DISL,ioos:station:DISL:DISL:1,2019-10-05T11:00:00Z,30.2513,-88.0778,2.305,23.13,11111222 
DISL,ioos:station:DISL:DISL:1,2019-10-05T12:00:00Z,30.2513,-88.0778,2.249,23.32,11111222 
DISL,ioos:station:DISL:DISL:1,2019-10-05T13:00:00Z,30.2513,-88.0778,2.211,22.43,11111222 
DISL,ioos:station:DISL:DISL:1,2019-10-05T14:00:00Z,30.2513,-88.0778,2.141,22.22,11111222 
DISL,ioos:station:DISL:DISL:1,2019-10-05T15:00:00Z,30.2513,-88.0778,2.11,21.98,11111222 
DISL,ioos:station:DISL:DISL:1,2019-10-05T16:00:00Z,30.2513,-88.0778,2.059,21.99,11111222 
DISL,ioos:station:DISL:DISL:1,2019-10-05T17:00:00Z,30.2513,-88.0778,2.016,22.08,11111222 
DISL,ioos:station:DISL:DISL:1,2019-10-05T18:00:00Z,30.2513,-88.0778,1.975,22.06,11111222 
DISL,ioos:station:DISL:DISL:1,2019-10-05T19:00:00Z,30.2513,-88.0778,1.938,21.91,11111222 
DISL,ioos:station:DISL:DISL:1,2019-10-05T20:00:00Z,30.2513,-88.0778,1.936,21.87,11111222 
DISL,ioos:station:DISL:DISL:1,2019-10-05T21:00:00Z,30.2513,-88.0778,1.927,21.9,11111222 
DISL,ioos:station:DISL:DISL:1,2019-10-05T22:00:00Z,30.2513,-88.0778,1.944,22.15,11111222 
DISL,ioos:station:DISL:DISL:1,2019-10-05T23:00:00Z,30.2513,-88.0778,1.975,22.25,11111222 
DISL,ioos:station:DISL:DISL:1,2019-10-06T00:00:00Z,30.2513,-88.0778,2.016,22.22,11111222 
DISL,ioos:station:DISL:DISL:1,2019-10-06T01:00:00Z,30.2513,-88.0778,2.062,22.24,11111222 
DISL,ioos:station:DISL:DISL:1,2019-10-06T02:00:00Z,30.2513,-88.0778,2.125,22.23,11111222 
DISL,ioos:station:DISL:DISL:1,2019-10-06T03:00:00Z,30.2513,-88.0778,2.184,22.06,11111222 
DISL,ioos:station:DISL:DISL:1,2019-10-06T04:00:00Z,30.2513,-88.0778,2.224,22.07,11111222 
DISL,ioos:station:DISL:DISL:1,2019-10-06T05:00:00Z,30.2513,-88.0778,2.299,23.93,11111222 
DISL,ioos:station:DISL:DISL:1,2019-10-06T06:00:00Z,30.2513,-88.0778,2.307,22.59,11111222 
DISL,ioos:station:DISL:DISL:1,2019-10-06T07:00:00Z,30.2513,-88.0778,2.351,24.44,11111222 
DISL,ioos:station:DISL:DISL:1,2019-10-06T08:00:00Z,30.2513,-88.0778,2.389,24.01,11111222 
DISL,ioos:station:DISL:DISL:1,2019-10-06T09:00:00Z,30.2513,-88.0778,2.402,24.62,11111222 
DISL,ioos:station:DISL:DISL:1,2019-10-06T10:00:00Z,30.2513,-88.0778,2.408,22.84,11111222 
DISL,ioos:station:DISL:DISL:1,2019-10-06T11:00:00Z,30.2513,-88.0778,2.393,22.12,11111222 
DISL,ioos:station:DISL:DISL:1,2019-10-06T12:00:00Z,30.2513,-88.0778,2.379,22.75,11111222 
DISL,ioos:station:DISL:DISL:1,2019-10-06T13:00:00Z,30.2513,-88.0778,2.326,23.3,11111222 
DISL,ioos:station:DISL:DISL:1,2019-10-06T14:00:00Z,30.2513,-88.0778,2.283,23.02,11111222 
DISL,ioos:station:DISL:DISL:1,2019-10-06T15:00:00Z,30.2513,-88.0778,2.232,22.63,11111222 
DISL,ioos:station:DISL:DISL:1,2019-10-06T16:00:00Z,30.2513,-88.0778,2.196,22.49,11111222 
DISL,ioos:station:DISL:DISL:1,2019-10-06T17:00:00Z,30.2513,-88.0778,2.177,22.48,11111222 
DISL,ioos:station:DISL:DISL:1,2019-10-06T18:00:00Z,30.2513,-88.0778,2.138,22.68,11111222 
DISL,ioos:station:DISL:DISL:1,2019-10-06T19:00:00Z,30.2513,-88.0778,2.099,22.87,11111222 
DISL,ioos:station:DISL:DISL:1,2019-10-06T20:00:00Z,30.2513,-88.0778,2.081,23.22,11111222 
DISL,ioos:station:DISL:DISL:1,2019-10-06T21:00:00Z,30.2513,-88.0778,2.057,23.86,11111222 
DISL,ioos:station:DISL:DISL:1,2019-10-06T22:00:00Z,30.2513,-88.0778,2.063,24.4,11111222 
DISL,ioos:station:DISL:DISL:1,2019-10-06T23:00:00Z,30.2513,-88.0778,2.081,24.89,11111222 
DISL,ioos:station:DISL:DISL:1,2019-10-07T00:00:00Z,30.2513,-88.0778,2.11,25.45,11111222 
DISL,ioos:station:DISL:DISL:1,2019-10-07T01:00:00Z,30.2513,-88.0778,2.134,25.16,11111222 
DISL,ioos:station:DISL:DISL:1,2019-10-07T02:00:00Z,30.2513,-88.0778,2.164,24.7,11111222 
DISL,ioos:station:DISL:DISL:1,2019-10-07T03:00:00Z,30.2513,-88.0778,2.21,24.99,11111222 
DISL,ioos:station:DISL:DISL:1,2019-10-07T04:00:00Z,30.2513,-88.0778,2.253,24.95,11111222 
DISL,ioos:station:DISL:DISL:1,2019-10-07T05:00:00Z,30.2513,-88.0778,2.298,24.21,11111222 
DISL,ioos:station:DISL:DISL:1,2019-10-07T06:00:00Z,30.2513,-88.0778,2.33,23.71,11111222 
DISL,ioos:station:DISL:DISL:1,2019-10-07T07:00:00Z,30.2513,-88.0778,2.369,25.79,11111222 
DISL,ioos:station:DISL:DISL:1,2019-10-07T08:00:00Z,30.2513,-88.0778,2.433,24.09,11111222 
DISL,ioos:station:DISL:DISL:1,2019-10-07T09:00:00Z,30.2513,-88.0778,2.39,23.33,11111222 
DISL,ioos:station:DISL:DISL:1,2019-10-07T10:00:00Z,30.2513,-88.0778,2.42,23.42,11111222 
DISL,ioos:station:DISL:DISL:1,2019-10-07T11:00:00Z,30.2513,-88.0778,2.388,23.15,11111222 
DISL,ioos:station:DISL:DISL:1,2019-10-07T12:00:00Z,30.2513,-88.0778,2.388,23.82,11111222 
DISL,ioos:station:DISL:DISL:1,2019-10-07T13:00:00Z,30.2513,-88.0778,2.364,24.07,11111222 
DISL,ioos:station:DISL:DISL:1,2019-10-07T19:00:00Z,30.2513,-88.0778,2.111,23.53,11111222 
DISL,ioos:station:DISL:DISL:1,2019-10-07T20:00:00Z,30.2513,-88.0778,2.111,23.28,11111222 
DISL,ioos:station:DISL:DISL:1,2019-10-07T21:00:00Z,30.2513,-88.0778,2.072,23.31,11111222 
DISL,ioos:station:DISL:DISL:1,2019-10-07T22:00:00Z,30.2513,-88.0778,2.102,23.17,11111222 
DISL,ioos:station:DISL:DISL:1,2019-10-07T23:00:00Z,30.2513,-88.0778,2.061,23.15,11111222 
DISL,ioos:station:DISL:DISL:1,2019-10-08T00:00:00Z,30.2513,-88.0778,2.028,23.1,11111222 
DISL,ioos:station:DISL:DISL:1,2019-10-08T01:00:00Z,30.2513,-88.0778,2.033,24.32,11111222 
DISL,ioos:station:DISL:DISL:1,2019-10-08T02:00:00Z,30.2513,-88.0778,2.051,24.04,11111222 
DISL,ioos:station:DISL:DISL:1,2019-10-08T03:00:00Z,30.2513,-88.0778,2.109,24.6,11111222 
DISL,ioos:station:DISL:DISL:1,2019-10-08T04:00:00Z,30.2513,-88.0778,2.182,23.39,11111222 
DISL,ioos:station:DISL:DISL:1,2019-10-08T05:00:00Z,30.2513,-88.0778,2.182,23.2,11111222 
DISL,ioos:station:DISL:DISL:1,2019-10-08T06:00:00Z,30.2513,-88.0778,2.213,23.27,11111222 
DISL,ioos:station:DISL:DISL:1,2019-10-08T07:00:00Z,30.2513,-88.0778,2.215,23.31,11111222 
DISL,ioos:station:DISL:DISL:1,2019-10-08T08:00:00Z,30.2513,-88.0778,2.269,23.05,11111222 
DISL,ioos:station:DISL:DISL:1,2019-10-08T09:00:00Z,30.2513,-88.0778,2.287,23.46,11111222 
DISL,ioos:station:DISL:DISL:1,2019-10-08T10:00:00Z,30.2513,-88.0778,2.303,23.32,11111222 
DISL,ioos:station:DISL:DISL:1,2019-10-08T11:00:00Z,30.2513,-88.0778,2.317,23.96,11111222 
DISL,ioos:station:DISL:DISL:1,2019-10-08T12:00:00Z,30.2513,-88.0778,2.338,23.28,11111222 
DISL,ioos:station:DISL:DISL:1,2019-10-08T13:00:00Z,30.2513,-88.0778,2.327,23.49,11111222 
DISL,ioos:station:DISL:DISL:1,2019-10-08T14:00:00Z,30.2513,-88.0778,2.309,23.5,11111222 
DISL,ioos:station:DISL:DISL:1,2019-10-08T15:00:00Z,30.2513,-88.0778,2.268,23.4,11111222 
DISL,ioos:station:DISL:DISL:1,2019-10-08T16:00:00Z,30.2513,-88.0778,2.223,23.01,11111222 
DISL,ioos:station:DISL:DISL:1,2019-10-08T17:00:00Z,30.2513,-88.0778,2.198,22.98,11111222 
DISL,ioos:station:DISL:DISL:1,2019-10-08T18:00:00Z,30.2513,-88.0778,2.142,22.96,11111222 
DISL,ioos:station:DISL:DISL:1,2019-10-08T19:00:00Z,30.2513,-88.0778,2.097,22.94,11111222 
DISL,ioos:station:DISL:DISL:1,2019-10-08T20:00:00Z,30.2513,-88.0778,2.073,19.41,11111222 
DISL,ioos:station:DISL:DISL:1,2019-10-08T21:00:00Z,30.2513,-88.0778,2.053,22.57,11111222 
DISL,ioos:station:DISL:DISL:1,2019-10-08T22:00:00Z,30.2513,-88.0778,2.046,21.73,11111222 
DISL,ioos:station:DISL:DISL:1,2019-10-08T23:00:00Z,30.2513,-88.0778,2.039,22.19,11111222 
DISL,ioos:station:DISL:DISL:1,2019-10-09T00:00:00Z,30.2513,-88.0778,2.035,22.11,11111222 
DISL,ioos:station:DISL:DISL:1,2019-10-09T01:00:00Z,30.2513,-88.0778,2.053,22.41,11111222 
DISL,ioos:station:DISL:DISL:1,2019-10-09T02:00:00Z,30.2513,-88.0778,2.14,23.85,11111222 
DISL,ioos:station:DISL:DISL:1,2019-10-09T03:00:00Z,30.2513,-88.0778,2.125,24.7,11111222 
DISL,ioos:station:DISL:DISL:1,2019-10-09T04:00:00Z,30.2513,-88.0778,2.159,23.31,11111222 
DISL,ioos:station:DISL:DISL:1,2019-10-09T05:00:00Z,30.2513,-88.0778,2.178,23.32,11111222 
DISL,ioos:station:DISL:DISL:1,2019-10-09T06:00:00Z,30.2513,-88.0778,2.175,23.34,11111222 
DISL,ioos:station:DISL:DISL:1,2019-10-09T07:00:00Z,30.2513,-88.0778,2.196,22.2,11111222 
DISL,ioos:station:DISL:DISL:1,2019-10-09T08:00:00Z,30.2513,-88.0778,2.194,21.71,11111222 
DISL,ioos:station:DISL:DISL:1,2019-10-09T09:00:00Z,30.2513,-88.0778,2.208,21.71,11111222 
DISL,ioos:station:DISL:DISL:1,2019-10-09T10:00:00Z,30.2513,-88.0778,2.23,21.81,11111222 
DISL,ioos:station:DISL:DISL:1,2019-10-09T11:00:00Z,30.2513,-88.0778,2.243,22.55,11111222 
DISL,ioos:station:DISL:DISL:1,2019-10-09T12:00:00Z,30.2513,-88.0778,2.25,24.08,11111222 
DISL,ioos:station:DISL:DISL:1,2019-10-09T13:00:00Z,30.2513,-88.0778,2.26,24.1,11111222 
DISL,ioos:station:DISL:DISL:1,2019-10-09T14:00:00Z,30.2513,-88.0778,2.27,24.62,11111222 
DISL,ioos:station:DISL:DISL:1,2019-10-09T15:00:00Z,30.2513,-88.0778,2.255,22.07,11111222 
DISL,ioos:station:DISL:DISL:1,2019-10-09T16:00:00Z,30.2513,-88.0778,2.225,22.55,11111222 
DISL,ioos:station:DISL:DISL:1,2019-10-09T17:00:00Z,30.2513,-88.0778,2.191,22.9,11111222 
DISL,ioos:station:DISL:DISL:1,2019-10-09T18:00:00Z,30.2513,-88.0778,2.158,22.9,11111222 
DISL,ioos:station:DISL:DISL:1,2019-10-09T19:00:00Z,30.2513,-88.0778,2.107,20.79,11111222 
DISL,ioos:station:DISL:DISL:1,2019-10-09T20:00:00Z,30.2513,-88.0778,2.074,20.96,11111222 
DISL,ioos:station:DISL:DISL:1,2019-10-09T21:00:00Z,30.2513,-88.0778,2.038,21.17,11111222 
DISL,ioos:station:DISL:DISL:1,2019-10-09T22:00:00Z,30.2513,-88.0778,2.036,21.44,11111222 
DISL,ioos:station:DISL:DISL:1,2019-10-09T23:00:00Z,30.2513,-88.0778,2.031,22.11,11111222 
DISL,ioos:station:DISL:DISL:1,2019-10-10T00:00:00Z,30.2513,-88.0778,2.035,23.29,11111222 
DISL,ioos:station:DISL:DISL:1,2019-10-10T03:00:00Z,30.2513,-88.0778,2.098,23.31,11111222 
DISL,ioos:station:DISL:DISL:1,2019-10-10T04:00:00Z,30.2513,-88.0778,2.129,23.3,11111222 
DISL,ioos:station:DISL:DISL:1,2019-10-10T05:00:00Z,30.2513,-88.0778,2.138,23.33,11111222 
DISL,ioos:station:DISL:DISL:1,2019-10-10T06:00:00Z,30.2513,-88.0778,2.176,23.69,11111222 
DISL,ioos:station:DISL:DISL:1,2019-10-10T07:00:00Z,30.2513,-88.0778,2.177,24.02,11111222 
DISL,ioos:station:DISL:DISL:1,2019-10-10T08:00:00Z,30.2513,-88.0778,2.209,24.12,11111222 
DISL,ioos:station:DISL:DISL:1,2019-10-10T09:00:00Z,30.2513,-88.0778,2.227,24.85,11111222 
DISL,ioos:station:DISL:DISL:1,2019-10-10T10:00:00Z,30.2513,-88.0778,2.243,26.07,11111222 
DISL,ioos:station:DISL:DISL:1,2019-10-10T11:00:00Z,30.2513,-88.0778,2.263,26.4,11111222 
DISL,ioos:station:DISL:DISL:1,2019-10-10T12:00:00Z,30.2513,-88.0778,2.305,26.7,11111222 
DISL,ioos:station:DISL:DISL:1,2019-10-10T13:00:00Z,30.2513,-88.0778,2.295,26.48,11111222 
DISL,ioos:station:DISL:DISL:1,2019-10-10T14:00:00Z,30.2513,-88.0778,2.292,26.07,11111222 
DISL,ioos:station:DISL:DISL:1,2019-10-10T15:00:00Z,30.2513,-88.0778,2.292,26.1,11111222 
DISL,ioos:station:DISL:DISL:1,2019-10-10T16:00:00Z,30.2513,-88.0778,2.269,23.21,11111222 
DISL,ioos:station:DISL:DISL:1,2019-10-10T17:00:00Z,30.2513,-88.0778,2.245,26.04,11111222 
DISL,ioos:station:DISL:DISL:1,2019-10-10T18:00:00Z,30.2513,-88.0778,2.216,26.35,11111222 
DISL,ioos:station:DISL:DISL:1,2019-10-10T19:00:00Z,30.2513,-88.0778,2.188,26.26,11111222 
DISL,ioos:station:DISL:DISL:1,2019-10-10T20:00:00Z,30.2513,-88.0778,2.17,26.14,11111222 
DISL,ioos:station:DISL:DISL:1,2019-10-10T21:00:00Z,30.2513,-88.0778,2.13,25.99,11111222 
DISL,ioos:station:DISL:DISL:1,2019-10-10T22:00:00Z,30.2513,-88.0778,2.126,26.31,11111222 
DISL,ioos:station:DISL:DISL:1,2019-10-10T23:00:00Z,30.2513,-88.0778,2.126,26.7,11111222 
DISL,ioos:station:DISL:DISL:1,2019-10-11T00:00:00Z,30.2513,-88.0778,2.122,15.47,11111222 
DISL,ioos:station:DISL:DISL:1,2019-10-11T01:00:00Z,30.2513,-88.0778,2.143,27.68,11111222 
DISL,ioos:station:DISL:DISL:1,2019-10-11T02:00:00Z,30.2513,-88.0778,2.168,27.74,11111222 
DISL,ioos:station:DISL:DISL:1,2019-10-11T03:00:00Z,30.2513,-88.0778,2.188,27.47,11111222 
DISL,ioos:station:DISL:DISL:1,2019-10-11T04:00:00Z,30.2513,-88.0778,2.209,27.48,11111222 
DISL,ioos:station:DISL:DISL:1,2019-10-11T05:00:00Z,30.2513,-88.0778,2.228,27.52,11111222 
DISL,ioos:station:DISL:DISL:1,2019-10-11T06:00:00Z,30.2513,-88.0778,2.232,27.49,11111222 
DISL,ioos:station:DISL:DISL:1,2019-10-11T07:00:00Z,30.2513,-88.0778,2.243,27.37,11111222 
DISL,ioos:station:DISL:DISL:1,2019-10-11T08:00:00Z,30.2513,-88.0778,2.22,27.16,11111222 
DISL,ioos:station:DISL:DISL:1,2019-10-11T09:00:00Z,30.2513,-88.0778,2.223,27.09,11111222 
DISL,ioos:station:DISL:DISL:1,2019-10-11T10:00:00Z,30.2513,-88.0778,2.217,27.88,11111222 
DISL,ioos:station:DISL:DISL:1,2019-10-11T11:00:00Z,30.2513,-88.0778,2.24,28.15,11111222 
DISL,ioos:station:DISL:DISL:1,2019-10-11T12:00:00Z,30.2513,-88.0778,2.25,28.3,11111222 
DISL,ioos:station:DISL:DISL:1,2019-10-11T13:00:00Z,30.2513,-88.0778,2.273,28.31,11111222 
DISL,ioos:station:DISL:DISL:1,2019-10-11T14:00:00Z,30.2513,-88.0778,2.285,22.39,11111222 
DISL,ioos:station:DISL:DISL:1,2019-10-11T15:00:00Z,30.2513,-88.0778,2.272,28.27,11111222 
DISL,ioos:station:DISL:DISL:1,2019-10-11T16:00:00Z,30.2513,-88.0778,2.281,28.21,11111222 
DISL,ioos:station:DISL:DISL:1,2019-10-11T17:00:00Z,30.2513,-88.0778,2.259,28.14,11111222 
DISL,ioos:station:DISL:DISL:1,2019-10-11T18:00:00Z,30.2513,-88.0778,2.23,28.4,11111222 
DISL,ioos:station:DISL:DISL:1,2019-10-11T19:00:00Z,30.2513,-88.0778,2.196,28.51,11111222 
DISL,ioos:station:DISL:DISL:1,2019-10-11T20:00:00Z,30.2513,-88.0778,2.177,28.38,11111222 
DISL,ioos:station:DISL:DISL:1,2019-10-11T21:00:00Z,30.2513,-88.0778,2.155,28.29,11111222 
DISL,ioos:station:DISL:DISL:1,2019-10-11T22:00:00Z,30.2513,-88.0778,2.142,28.25,11111222 
DISL,ioos:station:DISL:DISL:1,2019-10-11T23:00:00Z,30.2513,-88.0778,2.123,28.28,11111222 
DISL,ioos:station:DISL:DISL:1,2019-10-12T00:00:00Z,30.2513,-88.0778,2.164,28.29,11111222 
DISL,ioos:station:DISL:DISL:1,2019-10-12T01:00:00Z,30.2513,-88.0778,2.167,28.36,11111222 
DISL,ioos:station:DISL:DISL:1,2019-10-12T02:00:00Z,30.2513,-88.0778,2.2,28.71,11111222 
DISL,ioos:station:DISL:DISL:1,2019-10-12T03:00:00Z,30.2513,-88.0778,2.186,28.81,11111222 
DISL,ioos:station:DISL:DISL:1,2019-10-12T15:00:00Z,30.2513,-88.0778,2.168,26.2,11111222 
DISL,ioos:station:DISL:DISL:1,2019-10-12T16:00:00Z,30.2513,-88.0778,2.145,25.4,11111222 
DISL,ioos:station:DISL:DISL:1,2019-10-12T17:00:00Z,30.2513,-88.0778,2.138,25.12,11111222 
DISL,ioos:station:DISL:DISL:1,2019-10-12T18:00:00Z,30.2513,-88.0778,2.126,25.16,11111222 
DISL,ioos:station:DISL:DISL:1,2019-10-12T19:00:00Z,30.2513,-88.0778,2.118,24.99,11111222 
DISL,ioos:station:DISL:DISL:1,2019-10-12T20:00:00Z,30.2513,-88.0778,2.105,25.08,11111222 